Location: Noordwijk
(52.2400°N, 4.4500°E)
Time: 12:54:12
(UTC+00:00)

VELOX 1 - Pass Details

Date: 05 December 2022
Orbit: 621 x 635 km, 98.4° (Epoch: 29 January)

Event Time Altitude Azimuth Distance (km) Brightness Sun altitude
Exits shadow 18:44:51 35° 322° (NW) 1,006 ? -28.5°
Maximum altitude 18:45:41 39° 294° (WNW) 936 ? -28.6°
Drops below altitude 10° 18:49:43 10° 226° (SW) 1,989 ? -29.2°
Sets 18:51:59 0° 218° (SW) 2,891 ? -29.5°
